QZS-4 (MICHIBIKI-4)

Last updated on Mon Oct 07 2024 00:02:40 GMT+0000 (Coordinated Universal Time)

1 42965U 17062A 24280.53985832 -.00000303 00000+0 00000+0 0 9996 2 42965 40.4617 351.3818 0750871 269.9885 88.7293 1.00271935 25613
UTC large
Height (km)
Speed (km/s)
/
Latitude / Longitude
Inclination (degrees)
Orbital Period (minutes)
Azimuth
Elevation
Range (km)
Doppler Factor

Next 0 passes for location: London (51.5072 / 0.1276)

Sorry there are no passes over London.